Location: *
(43.9905°S, 176.4941°W)
Time: 23:16:51
(UTC+00:00)

Cosmos 1892 Rocket - Pass Details

Date: 08 December 2019
Orbit: 606 x 633 km, 82.5° (Epoch: 18 January)

Event Time Altitude Azimuth Distance (km) Brightness Sun altitude
Rises 09:47:35 0° 195° (SSW) 2,917 8.6 -18.7°
Reaches altitude 10° 09:49:53 10° 200° (SSW) 2,001 7.4 -18.9°
Maximum altitude 09:54:07 46° 273° (W) 834 4.3 -19.2°
Enters shadow 09:56:03 28° 329° (NNW) 1,174 4.7 -19.4°
